logo
Search for airport 
image banner adimage banner adimage banner ad
image banner ad

YWDM - Waddamana

Located in Waddamana, Australia

ICAO - , IATA -

Data provided by Airmate  

General information

Coordinates: S42°7'46" E146°44'45"
Elevation is 1894 feet MSL.
Magnetic variation is 14° East
View others Airports in Tasmania

Operational data

Special qualification required
Current time UTC:
Current local time:
Weather at : YMLT - Launceston ( 76 km )
METAR: YMLT 131641Z AUTO 35007KT 0800 FG ////// 09/09 Q1019 RF00.0/000.2 CLD SKY MAY BE OBSC
TAF: TAF AMD YMLT 131558Z 1315/1412 33006KT CAVOK FM132100 33008KT 9999 SCT015 FM140000 33012KT 9999 SCT040 FM141000 34008KT CAVOK PROB30 1316/1322 0300 FG
View NOTAMs / SUP AIP / TFR affecting this airport [VIEW]
Communications frequencies: [VIEW]

Runways:

Airport contact information

Address: Waddamana Australia

Satellite view of YWDM